[[{"header":{"parameterUnit":"m.s-1","parameterCategory":1,"la1":30.2991,"la2":30.254,"lo1":-89.0895,"lo2":-89.0444,"dy":0.0017,"dx":0.0017,"nx":28,"ny":28,"refTime":"2024-07-22T09:00:00:Z","depth":0,"parameterNumber":2,"parameterNumberName":"U-component_of_WINDS"},"data":[0,0,0,0,0,0,0,0,0,0,0,0,0,0,0,0,0,0,0,0,0,0,0,0,0,0,0,0,0,0,0,0,0,0,0,0,0,0,0,0,0,0,0,0,0,0,0,0,0,0,0,0,0,0,0,0,0,0,1.1554,1.1554,0,1.1592,1.1593,1.1593,1.1609,1.1608,1.1608,1.1608,1.1645,1.1646,1.1647,0,0,0,0,0,0,0,0,0,0,0,0,0,1.149,1.1491,1.1554,1.1555,1.1555,1.1592,1.1593,1.1593,1.1609,1.1608,1.1608,1.1608,1.1644,1.1645,1.1647,0,0,0,0,0,0,0,0,0,0,0,0,0,1.1522,1.1492,1.1554,1.1567,1.1569,1.1592,1.1593,1.1593,1.1609,1.1608,1.1608,1.1608,1.1644,1.1645,1.1647,1.1659,0,0,1.1652,1.1652,0,0,0,0,0,0,0,0,1.152,1.1524,1.1565,1.1566,1.1568,1.1596,1.1583,1.1615,1.1609,1.1593,1.1608,1.1608,1.1628,1.1631,1.1638,1.166,1.1662,1.1652,1.1653,1.1653,1.1654,0,0,0,0,0,0,0,1.1518,1.1523,1.1569,1.1565,1.1567,1.157,1.1574,1.1589,1.1611,1.1595,1.1596,1.16,1.1629,1.1637,1.1639,1.1662,1.1652,1.1653,1.1654,1.1655,1.1693,1.1693,0,0,0,0,0,0,1.1514,1.1521,1.1568,1.157,1.1544,1.1571,1.1576,1.1587,1.1611,1.1614,1.16,1.1601,1.1634,1.1637,1.1641,1.1655,1.1653,1.1655,1.1656,1.1693,1.1693,1.1693,0,0,0,0,0,0,1.1513,1.1518,1.1566,1.1546,1.1552,1.1572,1.1584,1.1588,1.1595,1.1615,1.1619,1.1605,1.1634,1.1638,1.1654,1.1656,1.1655,1.1657,1.1693,1.1693,1.1693,1.1683,0,0,0,0,0,0,1.1511,1.1518,1.1524,1.1546,1.1553,1.158,1.1585,1.1588,1.1598,1.1599,1.162,1.1623,1.1634,1.1651,1.1655,1.1658,1.1658,1.1693,1.1693,1.1693,1.1684,1.1683,1.1683,0,0,0,0,0,1.1509,1.1519,1.1524,1.1529,1.1561,1.158,1.1584,1.1598,1.1599,1.1604,1.1616,1.1623,1.1655,1.1653,1.1657,1.1661,1.1693,1.1693,1.1693,1.1684,1.1683,1.1683,0,0,0,0,0,0,1.1497,1.1523,1.1528,1.1547,1.1561,1.1583,1.159,1.1597,1.1611,1.1611,1.1626,1.1631,1.1644,1.1654,1.1651,1.1672,1.1674,1.1675,1.1665,1.1665,1.1665,1.1662,1.1659,0,0,0,0,0,1.1496,1.151,1.1532,1.1546,1.1553,1.157,1.1579,1.1588,1.1603,1.1609,1.1623,1.1636,1.1649,1.1658,1.1671,1.1685,1.1689,1.1689,1.1689,1.1688,1.1689,1.1695,1.1695,1.1694,1.1694,1.1694,0,0,1.1495,1.1511,1.1519,1.1544,1.1556,1.1569,1.1575,1.1589,1.1599,1.1611,1.1626,1.1636,1.1652,1.1666,1.1673,1.1675,1.169,1.1689,1.1688,1.1689,1.1695,1.1695,1.1695,1.1694,1.1694,1.1694,0,0,1.15,1.1514,1.1527,1.1539,1.1557,1.1568,1.1571,1.1591,1.1599,1.1614,1.1623,1.1633,1.1656,1.1667,1.1675,1.1681,1.1687,1.1685,1.1683,1.1688,1.1688,1.1688,1.1689,1.169,1.1685,1.1685,1.1685,0,1.1497,1.1518,1.1532,1.1545,1.1555,1.1567,1.1578,1.1589,1.161,1.1616,1.1617,1.1645,1.1656,1.1672,1.1673,1.168,1.1682,1.1683,1.1687,1.1688,1.1688,1.1689,1.1689,1.1685,1.1685,1.1685,1.1685,0,1.1512,1.1526,1.1533,1.1554,1.1564,1.1576,1.1591,1.1599,1.1606,1.1616,1.1631,1.1645,1.166,1.1665,1.1672,1.1681,1.1681,1.1685,1.1687,1.1687,1.1688,1.1689,1.1684,1.1684,1.1685,1.1685,0,0,1.1512,1.1538,1.1541,1.1549,1.1569,1.158,1.1591,1.1607,1.1613,1.1627,1.1636,1.1654,1.1657,1.1666,1.1674,1.1679,1.1681,1.1682,1.1682,1.168,1.1689,1.1686,1.1686,1.1685,1.1685,1.1685,1.1688,0,1.1519,1.1541,1.1553,1.157,1.1582,1.1592,1.1601,1.1614,1.1623,1.1633,1.1643,1.1655,1.1659,1.1664,1.1669,1.1679,1.1683,1.1679,1.1692,1.1692,1.1687,1.1687,1.1684,1.1686,1.1688,1.1688,1.1688,0,1.153,1.1544,1.1562,1.1578,1.1584,1.1592,1.1606,1.1617,1.163,1.1636,1.1645,1.1653,1.1663,1.1665,1.1679,1.1676,1.1681,1.1687,1.1687,1.1689,1.169,1.1688,1.1687,1.1687,1.1689,1.1689,1.1689,0,1.1527,1.1549,1.1562,1.1569,1.159,1.1595,1.1603,1.1617,1.1624,1.1636,1.1641,1.1653,1.166,1.1669,1.1679,1.1679,1.1691,1.1694,1.1695,1.1695,1.1697,1.1697,1.1697,1.1702,1.1702,1.1702,1.1702,0,1.1533,1.1543,1.1561,1.1569,1.158,1.1592,1.1602,1.1611,1.1622,1.1631,1.164,1.1648,1.1661,1.167,1.1678,1.1687,1.169,1.1694,1.1696,1.1693,1.1693,1.1697,1.1697,1.1702,1.1702,1.1702,1.1702,0,1.1532,1.1544,1.1559,1.1576,1.158,1.1587,1.1601,1.1609,1.1617,1.1628,1.1631,1.1645,1.1655,1.1666,1.1681,1.1686,1.1694,1.1697,1.169,1.1691,1.1692,1.1691,1.1694,1.1695,1.1699,1.1699,1.1699,0,1.1535,1.1543,1.156,1.1567,1.1575,1.1586,1.1594,1.1605,1.1613,1.1627,1.1632,1.1643,1.1653,1.1669,1.1679,1.169,1.1693,1.1693,1.1694,1.1691,1.1692,1.1691,1.1691,1.1692,1.1692,1.1692,1.1692,0,1.1538,1.1544,1.1555,1.1567,1.1576,1.1587,1.1597,1.1602,1.1615,1.1623,1.1634,1.1641,1.1655,1.1666,1.1677,1.1684,1.169,1.1692,1.1692,1.1689,1.1684,1.1686,1.1688,1.1692,1.1692,1.1692,1.1692,1.1692,1.1539,1.1545,1.1558,1.157,1.1579,1.1588,1.1595,1.1604,1.1614,1.1627,1.1633,1.1643,1.1654,1.167,1.1677,1.1684,1.1686,1.1687,1.1687,1.1687,1.1686,1.1683,1.1686,1.1686,1.1686,1.1686,1.1686,0,1.1542,1.155,1.1561,1.1575,1.1583,1.1588,1.1599,1.1606,1.1615,1.1625,1.1634,1.1645,1.1655,1.1666,1.1676,1.168,1.1682,1.1682,1.1681,1.1683,1.1685,1.1683,1.1679,1.1679,1.1679,1.1679,1.1679,1.1679,1.1544,1.1556,1.1562,1.1577,1.1585,1.1595,1.1601,1.1609,1.1617,1.1629,1.1638,1.1644,1.1654,1.1664,1.1673,1.1676,1.1678,1.1677,1.168,1.1682,1.1683,1.1683,1.1681,1.1678,1.1678,1.1678,1.1678,1.1678]},{"header":{"parameterUnit":"m.s-1","parameterCategory":1,"la1":30.2991,"la2":30.254,"lo1":-89.0895,"lo2":-89.0444,"dy":0.0017,"dx":0.0017,"nx":28,"ny":28,"refTime":"2024-07-22T09:00:00:Z","depth":0,"parameterNumber":3,"parameterNumberName":"V-component_of_WINDS"},"data":[0,0,0,0,0,0,0,0,0,0,0,0,0,0,0,0,0,0,0,0,0,0,0,0,0,0,0,0,0,0,0,0,0,0,0,0,0,0,0,0,0,0,0,0,0,0,0,0,0,0,0,0,0,0,0,0,0,0,1.5638,1.5638,0,1.5637,1.5637,1.5637,1.5624,1.5624,1.5623,1.5623,1.5621,1.5621,1.5621,0,0,0,0,0,0,0,0,0,0,0,0,0,1.5627,1.5627,1.5638,1.5638,1.5638,1.5637,1.5637,1.5637,1.5624,1.5624,1.5623,1.5623,1.5621,1.5621,1.5621,0,0,0,0,0,0,0,0,0,0,0,0,0,1.5629,1.5627,1.5638,1.5631,1.5631,1.5637,1.5637,1.5637,1.5624,1.5624,1.5623,1.5623,1.5621,1.5621,1.5621,1.5633,0,0,1.5622,1.5623,0,0,0,0,0,0,0,0,1.5629,1.563,1.5632,1.5632,1.5631,1.563,1.5632,1.5635,1.5624,1.5627,1.5623,1.5622,1.5624,1.5624,1.5625,1.5633,1.5633,1.5622,1.5623,1.5623,1.5623,0,0,0,0,0,0,0,1.5629,1.563,1.5637,1.5632,1.5632,1.5628,1.5628,1.5633,1.5628,1.5626,1.5625,1.5625,1.5624,1.5625,1.5625,1.5633,1.5622,1.5623,1.5623,1.5623,1.5649,1.5649,0,0,0,0,0,0,1.563,1.563,1.5637,1.5637,1.5629,1.5628,1.5628,1.5631,1.5628,1.5627,1.5626,1.5625,1.5624,1.5624,1.5625,1.5637,1.5623,1.5623,1.5623,1.5648,1.5649,1.5649,0,0,0,0,0,0,1.563,1.5631,1.5637,1.5633,1.5634,1.5629,1.5632,1.5631,1.5632,1.5628,1.5627,1.5628,1.5624,1.5624,1.5631,1.5637,1.5623,1.5624,1.5648,1.5648,1.5649,1.5663,0,0,0,0,0,0,1.563,1.5631,1.5636,1.5634,1.5634,1.5644,1.5633,1.5631,1.5633,1.5631,1.5629,1.5628,1.5624,1.563,1.5631,1.5637,1.5624,1.5647,1.5648,1.5649,1.5662,1.5664,1.5666,0,0,0,0,0,1.5629,1.564,1.5636,1.5637,1.564,1.5645,1.5645,1.5639,1.5633,1.5638,1.5635,1.5628,1.5636,1.5631,1.5632,1.5638,1.5647,1.5648,1.5649,1.5661,1.5664,1.5666,0,0,0,0,0,0,1.5643,1.564,1.5635,1.5646,1.5646,1.5642,1.5648,1.5643,1.5644,1.5643,1.5636,1.5635,1.5642,1.5641,1.5635,1.5649,1.564,1.5641,1.5649,1.5652,1.5654,1.5653,1.5624,0,0,0,0,0,1.5647,1.5652,1.5648,1.5658,1.5658,1.5653,1.5655,1.565,1.565,1.565,1.5647,1.5646,1.5648,1.565,1.5652,1.5662,1.566,1.5666,1.5668,1.567,1.5671,1.5674,1.5677,1.5653,1.5653,1.5653,0,0,1.5656,1.5655,1.5658,1.566,1.566,1.5663,1.5653,1.5658,1.566,1.565,1.5656,1.5654,1.5653,1.5661,1.5664,1.566,1.5677,1.5671,1.5673,1.5673,1.5676,1.5678,1.568,1.5653,1.5653,1.5653,0,0,1.5674,1.5674,1.5681,1.568,1.568,1.5676,1.5678,1.5675,1.5674,1.5679,1.5672,1.5674,1.5679,1.5677,1.5677,1.5694,1.5687,1.5694,1.5705,1.5708,1.571,1.5712,1.5716,1.5718,1.5696,1.5696,1.5696,0,1.5685,1.5691,1.5685,1.569,1.5691,1.5682,1.5689,1.5688,1.5688,1.5688,1.5684,1.5688,1.5686,1.5693,1.5697,1.5698,1.5699,1.5694,1.571,1.5712,1.5713,1.5718,1.5719,1.5696,1.5696,1.5696,1.5696,0,1.5704,1.5708,1.5714,1.5713,1.5715,1.5721,1.5715,1.5717,1.5712,1.5709,1.5714,1.5712,1.5713,1.5714,1.571,1.572,1.5717,1.5712,1.5703,1.5716,1.572,1.5722,1.5697,1.5697,1.5697,1.5697,0,0,1.573,1.5726,1.5729,1.5728,1.5726,1.5728,1.5733,1.5734,1.5735,1.5735,1.5738,1.5742,1.5736,1.5736,1.5731,1.5735,1.5746,1.5728,1.5728,1.5731,1.5755,1.5759,1.5761,1.5742,1.5742,1.5743,1.5755,0,1.5747,1.5755,1.575,1.5759,1.5761,1.5753,1.5757,1.5755,1.5752,1.5754,1.575,1.5752,1.5745,1.5745,1.5748,1.5744,1.5751,1.5743,1.5744,1.5744,1.5744,1.5764,1.5768,1.578,1.5757,1.5757,1.5757,0,1.5767,1.5767,1.5777,1.5773,1.5774,1.5778,1.5777,1.5779,1.5777,1.5774,1.5774,1.5768,1.5772,1.5763,1.5767,1.5762,1.5762,1.576,1.5761,1.576,1.5751,1.5762,1.5784,1.5785,1.576,1.576,1.5759,0,1.5784,1.5787,1.5793,1.5792,1.5788,1.5791,1.5789,1.5787,1.5787,1.5787,1.5786,1.5786,1.5786,1.5786,1.578,1.5775,1.5784,1.5776,1.5781,1.5781,1.5783,1.5783,1.5804,1.5785,1.5785,1.5785,1.5784,0,1.5802,1.5808,1.58,1.5803,1.5809,1.5802,1.5808,1.5805,1.5803,1.5805,1.5798,1.5799,1.5792,1.5792,1.5788,1.5791,1.5791,1.5789,1.5787,1.5789,1.5789,1.5788,1.5787,1.5785,1.5785,1.5785,1.5785,0,1.5822,1.5817,1.5823,1.5818,1.5817,1.5821,1.5817,1.582,1.5816,1.5818,1.5818,1.5812,1.5813,1.5807,1.5806,1.5803,1.5808,1.5806,1.5809,1.5808,1.5813,1.5812,1.5834,1.5835,1.5816,1.5816,1.5816,0,1.5834,1.5838,1.5834,1.5835,1.5833,1.5835,1.5835,1.5828,1.5829,1.5826,1.5829,1.5828,1.5828,1.5829,1.5824,1.5823,1.582,1.5827,1.582,1.5821,1.5819,1.5818,1.5818,1.5829,1.5829,1.5829,1.5829,0,1.5855,1.5852,1.5852,1.5852,1.5852,1.5852,1.5851,1.5852,1.5844,1.5845,1.5845,1.5845,1.5844,1.5843,1.5841,1.5839,1.5833,1.5832,1.5833,1.5834,1.5836,1.5834,1.5812,1.5831,1.5831,1.5831,1.5831,1.5831,1.587,1.5873,1.587,1.5871,1.5869,1.5868,1.5869,1.5866,1.5866,1.5865,1.5861,1.5861,1.5858,1.5855,1.5853,1.5853,1.5849,1.5851,1.5851,1.5851,1.5852,1.5836,1.5852,1.5852,1.5852,1.5852,1.5852,0,1.5889,1.5887,1.5888,1.5886,1.5886,1.5881,1.5879,1.5879,1.588,1.5878,1.5877,1.5877,1.5876,1.5871,1.5869,1.587,1.5867,1.587,1.5869,1.5869,1.5856,1.5855,1.5872,1.5872,1.5872,1.5872,1.5872,1.5872,1.59,1.5903,1.59,1.5903,1.59,1.5901,1.59,1.5898,1.5896,1.5896,1.5896,1.5893,1.5889,1.5887,1.5885,1.5884,1.5883,1.5887,1.5884,1.5872,1.587,1.5868,1.5867,1.5887,1.5887,1.5897,1.5897,1.5897]}]]